This demonstration page uses our WeatherBlox Daily Observations layout. Learn more.

Left ArrowRight Arrow

39.08367, -84.50855

Hourly Observations for August 2, 2019

Temp ( °F °C ) Dew Point ( °F °C ) Humidity (%) Winds ( mph kmh ) Pressure ( in mb ) Visibility ( mi km ) Precip ( " mm )
12:53 am 00:53 Clear 66 18.9 66 18.9 100 100 N N/A 30.10 1019 8 13 N/A
1:53 am 01:53 Clear 69 20.6 67 19.4 93 93 NE 3 6 30.09 1019 10 16 N/A
2:53 am 02:53 Mostly Clear 67 19.4 66 18.9 97 97 N N/A 30.09 1019 9 14 N/A
3:53 am 03:53 Clear 67 19.4 65 18.3 93 93 N N/A 30.09 1019 9 14 N/A
4:53 am 04:53 Clear with Mist and Fog 65 18.3 65 18.3 100 100 N N/A 30.09 1019 2 3 N/A
5:06 am 05:06 Clear 65 18.3 65 18.3 100 100 N N/A 30.09 1019 8 13 N/A
5:53 am 05:53 Clear 66 18.9 64 17.8 93 93 N N/A 30.09 1019 10 16 N/A
6:53 am 06:53 Partly Cloudy 66 18.9 64 17.8 93 93 ENE 5 7 30.09 1019 10 16 N/A
7:53 am 07:53 Mostly Sunny 68 20 64 17.8 87 87 N N/A 30.10 1019 10 16 N/A
8:53 am 08:53 Sunny 72 22.2 64 17.8 76 76 NE 5 7 30.11 1020 10 16 N/A
9:53 am 09:53 Sunny 75 23.9 64 17.8 69 69 ENE 7 11 30.10 1019 10 16 N/A
10:53 am 10:53 Sunny 79 26.1 66 18.9 65 65 NE 7 11 30.10 1019 10 16 N/A
11:53 am 11:53 Mostly Sunny 82 27.8 66 18.9 58 58 NE 10 17 30.10 1019 10 16 N/A
12:53 pm 12:53 Partly Cloudy 84 28.9 66 18.9 55 55 E 8 13 30.09 1019 10 16 N/A
1:53 pm 13:53 Partly Cloudy 86 30 66 18.9 51 51 NE 8 13 30.08 1019 10 16 N/A
2:53 pm 14:53 Partly Cloudy 86 30 66 18.9 51 51 NE 10 17 30.06 1018 10 16 N/A
3:53 pm 15:53 Sunny 86 30 65 18.3 49 49 NE 10 17 30.04 1017 10 16 N/A
4:53 pm 16:53 Mostly Cloudy 84 28.9 63 17.2 49 49 NE 6 9 30.03 1017 10 16 N/A
5:53 pm 17:53 Sunny 86 30 63 17.2 46 46 ENE 7 11 30.02 1017 10 16 N/A
6:53 pm 18:53 Partly Cloudy 84 28.9 63 17.2 49 49 NE 6 9 30.01 1016 10 16 N/A
7:53 pm 19:53 Partly Cloudy 80 26.7 64 17.8 58 58 ENE 6 9 30.02 1017 10 16 N/A
8:53 pm 20:53 Clear 74 23.3 67 19.4 79 79 N N/A 30.04 1017 10 16 N/A
9:53 pm 21:53 Clear 71 21.7 66 18.9 84 84 N N/A 30.04 1017 10 16 N/A
10:53 pm 22:53 Clear 69 20.6 65 18.3 87 87 N N/A 30.06 1018 10 16 N/A
11:53 pm 23:53 Clear 67 19.4 65 18.3 93 93 N N/A 30.06 1018 10 16 N/A

Powered by AerisWeather